Regional Weather Roundup
Issued by NWS Upton, NY

Current Version | Previous Version | Text Only | Print | Product List | Glossary Off
Versions: 1 2 3 4 5 6 7 8 9 10 11 12 13 14 15 16 17 18 19 20 21 22 23 24 25 26 27 28 29 30 31 32 33 34 35 36 37 38 39 40 41 42 43 44 45 46 47 48 49 50
235 ASUS41 KOKX 232309 RWROKX REGIONAL WEATHER ROUNDUP NATIONAL WEATHER SERVICE NEW YORK NY 700 PM EDT FRI JUN 23 2017 NOTE: "FAIR" INDICATES FEW OR NO CLOUDS BELOW 12,000 FEET WITH NO SIGNIFICANT WEATHER AND/OR OBSTRUCTIONS TO VISIBILITY. NYZ071-072-176-178-NJZ106-104-240000- NEW YORK CITY METRO AREA CITY SKY/WX TMP DP RH WIND PRES REMARKS Central Park CLOUDY 82 73 74 W7 29.67F Bronx Bot Gard N/A 82 70 65 SE3 29.66R LaGuardia APRT LGT RAIN 82 73 74 S10 29.63F Kennedy INTL PTSUNNY 74 70 87 S17 29.64F Breezy Point N/A 68 N/A N/A S12 N/A Newark/Liberty LGT RAIN 85 72 65 SW13G20 29.63F HX 91 Teterboro DRIZZLE 84 73 69 SW10 29.62F HX 90 $$ NYZ177-179-078>081-240000- LONG ISLAND NEW YORK CITY SKY/WX TMP DP RH WIND PRES REMARKS Jones Beach N/A 68 N/A N/A S13G20 N/A Matinecock PT NOT AVBL Farmingdale NOT AVBL MacArthur/ISP CLOUDY 75 71 87 SW12 29.66F Shirley PTSUNNY 74 71 91 S12G22 29.68F Mt Sinai Harb N/A 75 N/A N/A S12G17 N/A Westhampton CLOUDY 72 67 84 SW8 29.70F East Hampton CLOUDY 70 67 90 SW13G21 29.68F Montauk N/A 70 67 90 SW9G20 29.70F $$ NYZ052-065-067-240000- HUDSON VALLEY CITY SKY/WX TMP DP RH WIND PRES REMARKS White Plains NOT AVBL Larchmont Harb N/A 77 N/A N/A S12 N/A Croton O-T Hud N/A 82 N/A N/A S5 N/A Newburgh PTSUNNY 81 73 78 W9G17 29.64F Montgomery CLOUDY 82 71 69 SW9 29.62S Poughkeepsie MOSUNNY 82 70 66 SW8 29.61S Albany CLOUDY 80 69 69 S14 29.56S $$ NJZ001-105-106-008-010-013-015-019>022-104-240000- NEW JERSEY CITY SKY/WX TMP DP RH WIND PRES REMARKS Newark/Liberty LGT RAIN 85 72 65 SW13G20 29.63F HX 91 Teterboro DRIZZLE 84 73 69 SW10 29.62F HX 90 Caldwell LGT RAIN 83 73 72 VRB3 29.65R Somerville LGT RAIN 79 77 94 N3 29.62F Linden FAIR 85 70 59 SW6 29.64F HX 90 Perth Amboy N/A 84 N/A N/A SW14 N/A Sussex LGT RAIN 78 75 90 SW3 29.65R Andover N/A 76 74 93 S12G22 29.66S Trenton CLOUDY 84 73 69 SW13 29.64S HX 90 Millville CLOUDY 84 76 76 SW8 29.69S HX 93 Atlantic City NOT AVBL Wrightstown MOSUNNY 85 74 69 SW15G28 29.64R HX 92 Toms River CLOUDY 84 75 74 S13 29.68S HX 92 Belmar MOSUNNY 83 74 74 S6 29.67F $$ PAZ047>061-062-071-240000- EASTERN PENNSYLVANIA CITY SKY/WX TMP DP RH WIND PRES REMARKS Philadelphia PTSUNNY 85 72 65 SW24G35 29.67R HX 91 Allentown CLOUDY 79 73 82 SW5 29.65F Scranton CLOUDY 80 71 74 S8 29.61F $$ CTZ002-004>006-009-010-012-RIZ004-006-007-MAZ004-011-015-240000- SOUTHERN NEW ENGLAND IN CT CITY SKY/WX TMP DP RH WIND PRES REMARKS Bradley INTL CLOUDY 79 72 79 S12 29.62S Hartford CLOUDY 79 71 76 S10 29.62S Danbury CLOUDY 81 71 71 SW9 29.66F Wtrbury/Oxford PTSUNNY 79 68 69 SW6 29.67F Bridgeport MOSUNNY 77 69 76 S14 29.64F Meriden CLOUDY 77 70 79 S10 29.64F New Haven SUNNY 73 70 88 S10 29.65F Chester FAIR 75 72 88 SW8G16 29.67F Groton CLOUDY 72 68 87 SW12 29.67S Wilimantic CLOUDY 79 71 76 S12 29.65S IN RI CITY SKY/WX TMP DP RH WIND PRES REMARKS Providence CLOUDY 74 70 87 SW15G24 29.66F Block Island CLOUDY 68 65 90 SW16 29.70S Westerly CLOUDY 72 68 87 SW13G21 29.69S IN MA CITY SKY/WX TMP DP RH WIND PRES REMARKS Boston PTSUNNY 78 69 73 S20G28 29.61S Worcester CLOUDY 74 68 81 SW14 29.65S Westfield PTSUNNY 81 70 69 MISG 29.60F Provincetown CLOUDY 70 66 87 SW14 29.68S Nantucket CLOUDY 65 64 97 S16 29.73F FOG $$ ANZ330-335-338-340-345-350-353-355-240000- COASTAL MARINE OBSERVATIONS STATION/POSITION TIME SKY/WX TEMP WIND PRES VSBY WAVE AIR SEA DIR/SP/G HT/PER (UTC) (F) (DEG/KT/KT) (MB) (MI) (FT/S) NY HARB ENTRANCE 2150 69 66 200/ 19/ 23 1004.3 5/ 6 20 S FIRE ISLAND 2250 71 69 210/ 19/ 21 1004.2 6/ 6 GREAT SOUTH BAY 2230 72 76 220/ 17/ 21 N/A 23 SSW MONTAUK P 2150 68 64 1005.9 5/ 5 15 E BARNEGAT LI 2230 65 N/A 5/ 6 HUDSON CANYON 2150 71 67 210/ 21/ 25 1006.8 5/ 5 KINGS POINT 2224 75 68 210/ 14/ 15 1003.5 EXECUTION ROCKS 2245 78 160/ 8/ 12 N/A CENTRAL LI SOUND NOT AVBL EASTERN LI SOUND NOT AVBL ROBBINS REEF 2230 200/ 12/ 13 1004.0 $$ >>>>>>>>>>>>>>>>>>>>>>>>>>>> KEY <<<<<<<<<<<<<<<<<<<<<<<<<<< > < > SKY/WX - Sky Condition/Present Weather < > TMP - Temperature in Fahrenheit < > DP - Dew Point in Fahrenheit < > RH - Relative Humidity in Percent < > WIND - Direction (from) and Speed in MPH < > PRES - Mean Sea Level Pressure (inches of Hg) < > WCI - Wind Chill Index < > VSB - VISIBILITY IN MILES < > HX - HEAT INDEX < > TC - TEMPERATURE IN CELSIUS < > VRB - VARIABLE WIND DIRECTION < > < >>>>>>>>>>>>>>>>>>>>>>>>>>>> KEY <<<<<<<<<<<<<<<<<<<<<<<<<<<

USA.gov is the U.S. government's official web portal to all federal, state and local government web resources and services.